Theta_e
304 305 305 305 304 303 304 304 302 302 302 302 302 302 302 303 303 303 302 300 300 301 303 303 303 304 306 306 305 304 305 304 306 311 318 316 310 307 307 307 309 313 315 314 314 313 312
304 305 305 305 304 303 304 304 302 301 302 303 303 303 302 302 302 302 300 299 299 299 300 302 303 304 305 305 301 302 305 305 305 313 315 312 314 311 309 309 309 311 312 312 313 313 313
304 304 304 304 304 303 302 302 303 303 303 303 303 302 301 301 301 300 298 298 298 297 297 301 303 304 305 305 302 301 302 302 306 308 307 308 307 306 307 308 311 314 314 313 313 313 312
303 304 303 303 303 303 302 302 302 302 304 302 303 302 300 299 297 298 298 299 298 302 303 304 304 305 307 305 305 307 309 308 307 308 308 309 310 306 305 307 311 315 314 316 314 313 313
303 303 303 303 302 303 303 302 302 302 302 302 303 302 301 299 297 297 298 299 305 306 307 304 306 307 308 307 310 311 309 307 309 310 309 309 307 306 306 308 310 313 315 314 314 314 313
305 304 303 302 302 303 302 302 302 301 300 301 301 300 300 298 297 297 298 303 307 308 307 307 308 309 309 309 310 309 306 309 309 312 310 308 304 305 307 309 311 314 315 313 314 314 314
302 302 302 302 301 302 303 303 302 301 299 300 300 301 299 298 297 297 300 303 303 305 304 306 309 311 310 310 308 307 307 305 309 312 312 310 307 307 305 308 310 313 314 315 314 314 315
301 300 301 301 301 301 302 302 302 301 301 301 300 300 301 297 297 297 297 301 300 300 302 305 306 306 306 307 307 307 307 305 312 314 313 314 311 309 307 307 307 309 311 312 313 314 315
300 299 299 300 300 301 301 301 301 300 300 300 300 299 297 297 296 298 297 299 298 299 304 306 305 305 306 306 306 305 306 305 310 313 313 314 315 314 311 309 312 313 316 313 314 315 314
299 298 298 298 299 299 300 300 300 299 299 299 299 297 296 297 297 297 297 297 298 301 305 305 307 306 306 306 306 305 305 305 305 312 312 314 315 317 316 318 317 319 316 316 313 318 318
299 298 298 297 297 298 298 299 299 299 299 299 299 297 297 297 298 297 297 297 299 303 301 302 308 307 307 306 309 305 306 305 307 314 313 314 315 316 317 317 317 316 317 316 317 318 319
297 297 298 297 297 297 297 298 298 298 298 298 298 297 297 298 298 297 297 298 302 304 303 304 310 309 308 309 310 306 306 307 309 313 313 311 311 314 314 314 314 316 316 316 316 320 322
297 296 297 297 297 297 297 297 297 297 297 298 297 297 297 298 297 298 297 299 303 304 300 304 306 306 309 311 311 307 308 310 311 314 314 312 312 312 313 315 314 316 318 317 318 320 320
296 297 296 296 297 297 297 297 297 297 297 297 297 297 296 296 296 298 297 301 302 298 300 303 305 305 308 311 311 308 306 308 310 309 310 312 312 311 313 313 315 316 318 320 324 323 324
297 296 295 296 296 296 297 297 297 297 297 296 296 295 296 295 296 297 296 300 300 300 302 303 304 309 310 309 306 309 307 307 308 309 310 312 314 312 313 313 314 319 321 319 325 323 328
297 296 295 296 296 296 296 296 297 297 297 296 295 295 295 295 296 297 296 298 301 300 300 300 304 308 309 308 306 307 310 315 313 309 309 312 314 312 317 314 315 316 319 325 320 325 328
295 294 294 294 296 296 296 296 296 296 296 295 295 292 294 296 296 298 298 296 298 298 299 302 304 307 308 308 306 306 315 314 312 311 311 313 313 313 317 318 318 320 318 320 323 323 329
295 294 294 296 296 296 296 296 296 296 295 294 294 289 296 297 296 295 298 297 298 298 299 299 302 303 306 307 306 308 314 315 312 312 313 313 315 314 313 313 316 318 318 321 325 328 325
293 294 294 295 295 296 296 296 296 296 295 295 293 295 294 296 296 298 297 298 297 298 298 298 302 304 304 306 306 307 313 311 310 310 312 311 313 312 309 314 318 319 319 318 320 321 323
294 294 295 295 295 295 295 295 296 295 294 294 294 293 289 293 290 292 296 298 298 298 299 300 300 300 300 304 305 306 310 311 310 310 311 309 310 311 311 310 314 314 316 316 316 322 324
294 295 295 294 294 294 294 295 295 294 294 294 294 291 291 288 294 296 295 294 298 298 299 299 301 303 303 306 306 304 309 311 310 311 310 308 309 311 311 311 312 313 314 314 315 316 319
294 294 294 294 294 295 295 295 294 294 294 294 292 294 294 292 297 297 297 301 301 299 303 302 303 304 305 307 307 308 307 308 310 308 309 309 309 310 310 309 311 313 310 313 314 316 317
294 294 295 295 295 295 295 295 294 294 294 293 293 293 297 294 296 297 297 299 299 300 303 303 304 304 306 306 307 306 306 306 307 309 310 309 309 310 307 307 308 311 314 316 317 317 315
293 293 294 294 294 295 295 295 295 295 295 293 293 294 296 294 296 296 297 298 300 302 304 304 304 304 304 306 305 305 305 306 306 307 307 308 308 308 307 307 305 311 314 315 318 318 317
294 293 294 295 295 295 295 295 295 296 295 295 293 294 296 294 296 297 297 299 299 300 302 303 305 304 303 304 304 305 304 304 305 306 308 307 307 307 306 307 306 308 315 316 315 318 315
294 293 294 294 295 295 295 295 295 296 296 295 294 293 293 293 293 296 296 298 298 300 302 302 300 300 302 301 303 305 306 306 306 306 305 306 305 306 307 308 307 312 314 313 313 319 314
293 294 294 294 295 295 295 295 295 296 297 295 295 293 294 294 292 294 295 296 298 298 299 302 298 303 300 300 302 303 305 305 307 305 307 307 307 309 307 307 308 311 317 314 319 318 313
293 293 294 294 294 294 295 295 295 296 296 297 295 294 294 291 293 295 295 295 295 296 294 297 297 299 302 303 303 303 302 304 305 305 308 307 308 308 307 309 309 314 315 314 313 311 310
293 294 294 294 294 295 295 295 296 296 296 297 294 294 294 293 291 295 296 296 295 295 295 297 296 299 301 302 300 303 304 302 306 307 310 311 308 308 308 308 310 310 313 310 306 307 306
Wind_Speed
4 4 5 5 6 7 9 10 13 14 15 15 17 19 20 22 22 24 29 30 29 30 28 25 22 20 12 3 11 9 8 6 6 7 8 4 4 4 5 5 5 9 8 6 8 8 9
5 5 6 5 5 8 10 11 11 14 16 17 16 18 21 22 24 26 30 33 34 34 31 25 20 13 5 8 7 4 5 8 7 7 5 6 4 6 5 4 6 5 6 10 8 12 8
3 4 6 6 8 10 12 12 12 14 16 14 15 18 23 24 26 30 34 37 38 38 34 27 18 8 10 22 10 13 19 21 10 9 3 8 4 1 1 5 5 6 9 8 7 3 7
3 5 6 7 9 10 12 12 13 15 15 14 15 19 23 25 31 32 35 39 37 33 29 21 12 7 9 16 19 23 16 14 14 14 18 14 9 4 4 5 6 4 4 6 1 8 7
4 5 6 7 9 10 10 11 13 15 16 16 17 19 22 27 32 35 38 36 30 16 10 5 9 6 11 10 8 8 11 5 7 7 11 11 6 6 2 2 4 2 11 11 7 7 7
2 3 4 7 10 11 10 11 12 15 17 18 19 19 20 29 33 34 37 30 11 6 11 9 5 3 9 3 3 8 3 4 4 2 1 4 3 3 2 4 7 4 7 6 4 4 5
4 4 6 8 10 11 11 11 10 13 17 17 17 17 20 26 32 34 28 11 7 3 7 7 7 9 11 7 9 2 1 4 3 3 5 2 3 6 8 6 4 5 9 16 8 8 9
5 5 7 8 9 11 11 10 11 14 15 17 18 18 20 25 29 28 23 4 8 10 14 16 22 26 39 22 9 16 3 3 3 6 4 1 6 8 6 6 7 7 9 11 11 9 8
5 5 4 7 9 9 10 11 12 13 15 16 19 20 22 25 27 10 20 2 24 23 6 11 15 13 11 20 16 24 6 4 5 6 6 6 4 3 5 6 7 10 8 10 13 6 10
4 4 6 7 9 10 10 11 12 14 17 17 19 19 20 21 9 23 11 26 28 15 5 7 6 8 9 9 7 22 20 7 5 11 6 5 3 3 3 4 5 9 6 11 11 5 6
4 6 6 7 8 9 10 12 12 14 16 16 16 17 16 13 15 7 16 27 26 1 5 3 4 5 10 9 3 4 11 4 9 6 7 5 5 3 4 5 4 5 9 13 3 4 7
7 6 7 8 8 10 11 11 12 14 15 16 14 15 16 11 10 12 20 23 6 2 9 7 0 3 5 7 2 5 4 5 4 5 2 4 2 5 6 4 4 4 7 4 2 2 7
6 7 8 7 7 10 11 11 12 14 15 16 15 13 13 10 5 13 18 7 1 5 8 7 9 9 11 4 3 4 6 6 6 5 5 2 4 2 3 1 4 4 3 2 2 3 7
8 6 7 9 8 10 10 11 12 14 14 15 14 13 14 18 17 14 8 1 9 9 6 11 12 17 9 5 6 6 7 4 1 4 3 5 2 7 4 6 4 6 5 3 5 3 3
7 7 9 9 8 11 10 11 12 14 14 13 13 10 14 21 10 6 3 7 4 3 4 11 12 7 9 11 14 5 8 8 6 6 5 4 3 2 5 5 5 3 8 3 6 3 3
11 8 8 10 9 9 10 11 13 13 13 12 8 6 11 15 3 8 2 11 3 4 7 5 5 7 6 11 13 5 8 0 4 4 3 3 1 1 2 3 5 5 5 2 4 4 3
8 11 11 10 10 11 11 11 12 12 12 9 4 3 5 7 8 2 4 6 6 8 10 6 5 6 6 8 16 5 2 1 4 3 7 3 2 1 1 6 6 4 3 4 4 3 2
9 8 11 11 10 11 11 11 12 12 9 3 1 2 3 8 1 2 6 4 3 9 5 5 5 8 4 8 11 7 4 4 3 1 4 3 3 4 9 3 5 3 2 5 3 3 4
11 11 12 13 11 10 11 11 11 11 6 2 1 2 7 6 3 1 4 9 6 10 11 4 5 2 4 5 6 4 4 1 3 4 4 3 3 3 6 4 2 1 1 5 6 3 6
12 11 12 13 9 10 11 11 12 12 6 6 1 3 3 1 2 3 5 8 7 10 13 11 10 11 13 7 17 4 2 2 4 5 7 3 3 4 3 4 1 6 8 7 5 4 4
14 14 10 12 13 13 13 13 14 11 6 8 2 4 4 3 2 10 4 4 9 9 10 11 4 12 8 4 11 4 3 3 5 6 3 3 3 3 6 10 11 14 15 14 15 14 7
14 13 13 13 13 13 12 13 12 10 7 7 2 2 2 3 4 3 1 3 11 16 5 5 12 7 6 8 7 2 2 3 3 1 3 0 1 1 4 7 7 12 18 15 14 18 16
14 16 17 18 15 15 15 16 13 13 13 4 5 4 2 3 4 1 2 5 11 12 9 9 2 4 4 3 3 3 3 2 2 4 3 2 2 2 4 6 11 8 4 6 9 17 15
14 17 16 16 15 16 16 17 17 14 18 12 7 2 2 2 3 4 8 13 14 11 3 3 2 3 4 4 4 2 2 2 3 6 5 6 3 2 3 5 3 4 6 8 12 7 10
15 15 16 17 17 16 17 18 18 16 17 20 11 4 1 2 2 7 9 9 11 10 7 4 2 3 9 4 2 3 3 3 4 7 10 7 4 1 2 3 8 8 3 6 7 5 11
15 16 17 17 17 18 19 18 16 15 16 24 18 15 2 1 4 2 3 6 4 7 7 4 6 7 3 3 2 1 1 2 3 5 3 5 2 3 1 2 4 3 0 2 8 6 16
17 17 17 18 20 20 19 17 16 15 16 18 11 24 4 2 4 2 3 4 3 3 3 4 8 6 3 2 2 1 2 2 3 3 3 3 2 11 7 4 6 5 8 4 4 5 11
18 18 19 21 22 20 19 17 16 15 13 23 14 23 15 3 4 3 4 3 4 1 1 4 4 3 3 2 1 1 2 3 2 4 3 5 5 4 3 3 8 11 6 3 4 9 11
19 20 21 21 20 19 19 19 17 15 13 22 6 20 26 2 4 6 15 17 11 14 3 2 2 2 3 2 1 2 2 3 3 3 3 3 3 3 4 1 8 11 13 12 8 12 11
Wind_Direction
320 335 309 314 330 337 326 328 326 325 323 324 328 332 334 330 326 325 322 320 317 315 313 314 319 329 342 324 251 233 256 273 312 216 213 202 169 181 204 214 249 239 252 254 249 259 243
309 319 331 339 332 336 334 325 331 332 330 320 323 327 330 330 326 323 323 321 319 314 310 306 309 320 289 272 252 266 269 263 288 196 227 202 205 212 251 249 222 291 276 267 254 250 256
303 329 335 327 329 331 328 334 331 332 330 325 324 326 330 331 329 325 324 320 316 310 309 302 293 287 253 250 257 282 277 277 247 222 225 234 209 197 233 292 258 262 289 290 253 217 218
281 314 323 334 335 337 336 335 326 333 324 325 326 328 331 332 333 332 328 322 315 310 307 287 259 216 254 263 297 285 283 264 238 239 225 252 237 199 183 261 324 305 277 273 263 202 221
297 306 314 323 332 334 332 335 334 336 337 331 326 327 328 330 332 331 329 324 316 332 311 184 150 185 263 303 268 285 229 226 180 227 224 238 156 186 201 174 326 268 262 271 300 220 245
305 303 333 328 324 319 324 325 329 332 337 330 325 327 328 333 335 335 332 328 336 83 70 112 115 245 264 286 339 303 300 259 233 204 63 141 81 167 95 141 227 224 259 253 243 298 306
286 314 324 330 328 322 314 316 326 327 335 339 338 332 331 331 336 337 342 354 7 340 7 265 251 265 296 299 325 252 41 310 190 140 178 223 165 212 216 222 236 285 275 275 264 281 295
312 319 323 324 322 327 331 333 332 327 332 333 332 333 330 327 332 334 352 35 27 302 294 258 253 248 249 259 284 284 264 188 155 187 156 42 244 230 209 227 248 257 270 282 280 250 265
279 305 345 347 342 331 327 328 329 329 328 330 328 329 328 325 327 342 339 25 338 338 266 276 238 241 235 200 225 249 196 191 185 183 188 186 219 205 192 232 246 257 260 273 277 279 270
286 296 324 336 329 328 328 326 325 322 320 321 321 328 337 335 331 333 325 327 335 344 289 275 233 254 186 150 227 214 190 158 212 197 167 228 214 207 210 221 212 265 253 267 267 284 273
268 286 315 330 331 330 319 313 316 322 327 323 322 329 332 338 301 318 324 324 330 24 313 256 235 180 146 197 155 173 171 127 171 166 142 224 159 159 210 222 168 252 295 262 263 284 297
286 304 311 315 320 323 321 325 325 326 327 322 323 329 334 328 293 299 329 325 326 57 246 299 275 217 175 241 326 116 148 84 142 122 38 218 145 169 212 218 217 308 273 306 317 327 260
284 296 298 298 317 321 321 317 322 322 326 320 314 312 325 297 264 308 328 346 96 222 322 327 341 339 295 255 252 142 158 159 152 130 210 343 235 217 126 320 244 205 222 283 278 201 240
284 278 300 300 314 320 308 317 321 323 321 321 315 305 302 277 282 293 337 93 223 221 243 326 331 309 232 195 233 169 143 159 204 99 120 164 312 168 169 202 196 207 206 212 240 226 313
289 292 298 301 321 315 314 316 317 317 317 320 325 333 289 291 295 228 76 222 225 201 337 346 338 352 355 353 341 150 178 204 178 176 147 153 261 112 186 198 157 197 218 338 311 252 284
278 274 296 311 306 301 306 310 310 312 315 321 331 306 269 296 259 148 158 239 263 325 7 340 319 17 328 336 316 331 172 326 124 178 113 174 344 166 329 109 199 204 6 184 195 277 255
280 287 295 288 295 295 301 306 309 313 315 320 324 338 312 336 146 188 225 244 302 327 6 331 351 334 333 326 301 289 14 38 21 59 94 106 101 295 339 204 197 183 227 225 282 226 273
289 286 287 287 285 292 294 297 304 306 314 331 58 317 74 121 135 219 233 231 235 282 345 303 267 243 288 313 304 320 99 49 312 98 61 37 116 265 238 228 203 172 221 233 235 180 202
282 282 278 287 278 285 288 293 297 295 285 171 256 270 286 190 269 254 294 271 237 259 261 260 296 20 99 289 308 337 57 40 66 79 135 166 146 290 318 51 82 360 323 244 294 275 227
275 274 273 279 278 284 290 290 283 280 260 184 252 289 302 106 187 206 256 263 246 255 265 253 260 253 253 280 292 271 200 131 64 82 91 101 159 200 234 250 192 287 258 238 205 281 321
270 280 268 277 277 278 276 276 275 274 231 178 195 238 214 283 306 312 206 291 267 273 237 238 249 238 204 230 276 254 82 82 48 118 80 112 198 235 261 270 278 268 271 266 252 252 244
266 281 272 270 272 277 277 272 266 259 205 191 203 227 294 284 281 295 311 302 282 260 250 254 225 262 217 208 246 86 38 104 203 211 110 50 182 275 290 285 266 279 274 261 244 251 253
266 272 266 267 272 273 270 268 259 245 205 190 212 258 273 291 330 285 281 299 296 290 239 242 195 306 286 231 229 234 196 187 141 147 137 170 185 103 263 294 305 292 244 217 266 260 242
275 273 271 270 269 269 266 262 260 250 217 196 198 177 248 273 250 263 270 296 300 298 251 264 223 171 268 283 280 299 336 288 200 207 168 161 194 166 266 326 269 227 40 322 276 263 292
267 270 267 269 270 270 272 270 265 252 225 205 210 187 259 266 287 283 306 316 313 349 0 14 56 271 309 339 35 22 350 350 260 221 196 183 147 207 223 237 283 287 24 13 321 281 306
260 266 269 268 270 274 273 269 264 250 227 205 202 204 170 253 250 42 329 300 309 353 345 353 350 311 358 56 46 114 196 318 311 308 213 153 145 166 191 273 272 307 200 337 356 267 339
262 266 267 269 272 273 267 263 257 255 246 206 197 203 176 232 260 247 247 286 337 357 310 332 334 343 3 49 77 149 256 291 256 245 186 141 174 221 233 250 271 310 23 3 289 26 47
266 264 268 270 270 268 263 255 255 254 238 197 191 198 193 197 288 267 280 260 327 356 82 299 348 359 359 44 116 256 196 252 290 242 220 185 181 198 183 219 269 0 322 7 108 73 63
266 269 272 272 271 264 261 257 253 241 227 192 170 197 204 223 241 275 276 271 249 237 185 312 179 304 336 315 12 303 299 313 299 283 355 259 216 194 192 275 28 29 75 84 62 72 63